Regional Weather Roundup
Issued by NWS

Home | Current Version | Previous Version | Text Only | Print | Product List | Glossary Off
Versions: 1 2 3 4 5 6 7 8 9 10 11 12 13 14 15 16 17 18 19 20 21 22 23 24 25 26 27 28 29 30 31 32 33 34 35 36 37 38 39 40 41 42 43 44 45 46 47 48 49 50

155
ASUS43 KLOT 240608
RWRIL

ILLINOIS REGIONAL WEATHER ROUNDUP
NATIONAL WEATHER SERVICE CHICAGO/ROMEOVILLE IL
100 AM CDT MON APR 24 2017

NOTE: "FAIR" INDICATES FEW OR NO CLOUDS BELOW 12,000 FEET WITH NO
SIGNIFICANT WEATHER AND/OR OBSTRUCTIONS TO VISIBILITY.

* THESE STATIONS ARE NOT UNDER NWS QUALITY CONTROL. THEY ALSO MAY NOT
  REPORT WEATHER SUCH AS PRECIPITATION OR FOG.

ILZ001-002-007-009-015-016-024-240700-
NORTHWEST ILLINOIS

CITY           SKY/WX    TMP DP  RH WIND       PRES   REMARKS
MOLINE         CLOUDY    45  37  73 CALM      29.99F
6HR MIN TEMP:  45; 6HR MAX TEMP:  69;

STERLING*      CLEAR     54  31  41 SE5       30.02S
SAVANNA*         N/A     46  40  79 CALM      30.00F HAZE
$$

ILZ003-004-008-010-011-017-018-240700-
NORTH CENTRAL ILLINOIS

CITY           SKY/WX    TMP DP  RH WIND       PRES   REMARKS
ROCKFORD       PTCLDY    50  36  58 E3        30.05S
6HR MIN TEMP:  50; 6HR MAX TEMP:  70;

FREEPORT*      CLEAR     48  34  57 S8        30.03S
ROCHELLE*      CLEAR     49  34  56 SE6       30.03S
DE KALB*       PTCLDY    47  33  58 E6        30.03F
PERU*          CLEAR     46  32  58 NE5       30.02F
$$

ILZ005-006-012>014-019>023-240700-
NORTHEAST ILLINOIS

CITY           SKY/WX    TMP DP  RH WIND       PRES   REMARKS
CHICAGO-OHARE  MOCLDY    43  38  82 NE7       30.04F
6HR MIN TEMP:  43; 6HR MAX TEMP:  65;

CHICAGO-MIDWAY MOCLDY    47  39  74 N6        30.04F
6HR MIN TEMP:  47; 6HR MAX TEMP:  65;

AURORA         CLEAR     47  35  63 E3        30.03S
6HR MIN TEMP:  47; 6HR MAX TEMP:  71;

LANSING*       PTCLDY    45  43  93 CALM      30.04F
JOLIET*        PTCLDY    50  33  50 CALM      30.02F
WAUKEGAN       CLEAR     38  32  79 CALM      30.04F
6HR MIN TEMP:  38; 6HR MAX TEMP:  43;

DUPAGE AIRPORT CLEAR     41  38  89 NE6       30.03S
6HR MIN TEMP:  41; 6HR MAX TEMP:  66;

KANKAKEE*      CLEAR     45  27  48 CALM      30.03F
WHEELING       CLEAR     41  40  96 CALM      30.06S
6HR MIN TEMP:  41; 6HR MAX TEMP:  55;

MORRIS*        CLEAR     48  31  52 CALM      30.01F
ROMEOVILLE*    PTCLDY    49  35  58 E7        30.03F
NORTHERLY ISL    N/A     43  40  89 N7          N/A
$$

LMZ740>746-240700-
SOUTHERN LAKE MICHIGAN

STATION/POSITION SKY/WX   TEMP    WIND        PRES    VSBY  WAVE
                          AIR SEA DIR/SP/G                  HT/PER
                          (F)     (DEG/KT/KT) (MB)    (MI)  (FT/S)
SOUTHERN BUOY              40 40  360/  6/  6 1018.1          3/ 6
HARRISON CRIB              43     350/  9/ 10   N/A
BURNHAM HARBOR             43     360/  8/ 12   N/A
CALUMET HARBOR                    350/  6/  8 1016.9F
BURNS HARBOR               49     340/  5/  7 1017.6S
MICHIGAN CITY              51        CALM       N/A
ST. JOSEPH                 52 51   30/  2/  4 1017.4          0
$$

ILZ025>027-034>036-040-047-049-050-058-095>099-240700-
WEST-CENTRAL ILLINOIS

CITY           SKY/WX    TMP DP  RH WIND       PRES   REMARKS
QUINCY         PTCLDY    58  23  26 SE5       29.98F
GALESBURG*     CLEAR     45  36  72 CALM      29.99F
MACOMB*        CLEAR     44  34  66 CALM      30.01F
JACKSONVILLE*  CLEAR     47  31  52 CALM      29.99F
PITTSFIELD*    CLEAR     44  38  80 CALM      30.00F
$$

ILZ028>032-037-038-041>044-048-051>054-059>061-240700-
CENTRAL ILLINOIS

CITY           SKY/WX    TMP DP  RH WIND       PRES   REMARKS
PONTIAC        CLEAR     47  31  54 CALM      30.02F
BLOOMINGTON    CLEAR     51  23  33 E6        30.02F
DECATUR        CLEAR     44  31  60 NE7       30.01S
PEORIA         PTCLDY    50  33  52 E6        30.01F
6HR MIN TEMP:  48; 6HR MAX TEMP:  71;

LACON*         CLOUDY    45  32  61 CALM      30.01S
LINCOLN*       CLEAR     46  30  52 CALM      30.00F
SPRINGFIELD    CLEAR     50  33  52 E8        30.00S
6HR MIN TEMP:  47; 6HR MAX TEMP:  70;

TAYLORVILLE    CLEAR     48  32  54 NE3       30.00S
6HR MIN TEMP:  46; 6HR MAX TEMP:  68;

$$

ILZ033-039-045-046-055>057-062-063-240700-
EAST-CENTRAL ILLINOIS

CITY           SKY/WX    TMP DP  RH WIND       PRES   REMARKS
CHAMPAIGN      CLEAR     51  26  37 NE9       30.00F
RANTOUL*       PTCLDY    54  28  37 NE8       30.01S
MATTOON        CLEAR     50  31  48 CALM      29.99S
PARIS*         CLEAR     46  39  76 N5        30.00F
$$

ILZ079-100>102-240700-
SOUTHWEST ILLINOIS

CITY           SKY/WX    TMP DP  RH WIND       PRES   REMARKS
ALTON          CLEAR     45  37  72 CALM      29.98F
BELLEVILLE     CLEAR     51  36  57 N5        29.96S
CAHOKIA*       CLEAR     45  39  79 CALM      29.97F
SPARTA*        CLEAR     50  34  52 N5        29.97F
$$

ILZ064>066-069>071-074>076-080>082-084>086-088>090-092>094-240700-
SOUTH-CENTRAL ILLINOIS

CITY           SKY/WX    TMP DP  RH WIND       PRES   REMARKS
CARBONDALE     CLEAR     45  40  82 CALM      29.94F
6HR MIN TEMP:  44; 6HR MAX TEMP:  68;

CAIRO*         CLEAR     47  43  87 NW6       29.92F
EFFINGHAM*     CLEAR     55  33  44 N3        29.99F
MARION         CLEAR     46  39  76 CALM      29.95S
MT. VERNON     CLEAR     52  32  46 N5        29.95F
CENTRALIA*     CLEAR     55  34  45 CALM      29.96S
SALEM*         CLEAR     54  32  42 NE6       29.96F
METROPOLIS*    CLEAR     49  45  83 N3        29.92F
$$

ILZ067-068-072-073-078-083-087-091-240700-
SOUTHEAST ILLINOIS

CITY           SKY/WX    TMP DP  RH WIND       PRES   REMARKS
LAWRENCEVILLE  CLEAR     52  33  48 NE8       29.96F
FLORA*         CLEAR     52  35  51 N6        29.97S
FAIRFIELD*     CLEAR     53  33  46 N3        29.94S
HARRISBURG*    CLEAR     46  42  85 N3        29.93F
ROBINSON*      CLEAR     44  34  68 CALM      29.97F
CARMI*         PTCLDY    50  39  65 N7        29.93F
$$

ABBREVIATIONS USED IN REMARKS
   TC - TEMPERATURE IN CELSIUS
  WCI - WIND CHILL INDEX
   HX - HEAT INDEX
  VSB - VISIBILITY
$$





USA.gov is the U.S. government's official web portal to all federal, state and local government web resources and services.